Location: Altleiningen
(49.5078°N, 8.0741°E)
Time: 21:17:41
(UTC+00:00)

Cosmos 921 Rocket - Pass Details

Date: 14 June 2025
Orbit: 564 x 622 km, 75.8° (Epoch: 16 July)

Event Time Altitude Azimuth Distance (km) Brightness Sun altitude
Rises 20:18:11 0° 181° (S) 2,785 6.0 -5.9°
Reaches altitude 10° 20:20:25 10° 175° (S) 1,900 5.1 -6.1°
Maximum altitude 20:24:26 44° 103° (ESE) 831 3.4 -6.5°
Drops below altitude 10° 20:28:33 10° 32° (NNE) 1,951 5.9 -7.0°
Sets 20:30:53 0° 26° (NNE) 2,869 6.8 -7.2°
